Location: ??????
(41.3164°N, 22.6615°E)
Time: 23:01:42
(UTC+00:00)

CZ-4B R/B - Pass Details

Date: 16 October 2021
Orbit: 808 x 882 km, 99.1° (Epoch: 26 November)

Event Time Altitude Azimuth Distance (km) Brightness Sun altitude
Rises 16:49:30 0° 173° (S) 3,439 6.3 -12.5°
Reaches altitude 10° 16:51:53 10° 176° (S) 2,513 5.6 -13.0°
Maximum altitude 16:57:27 65° 258° (WSW) 964 3.8 -14.0°
Drops below altitude 10° 17:03:06 10° 340° (NNW) 2,549 6.0 -15.1°
Sets 17:05:32 0° 343° (NNW) 3,492 6.6 -15.5°
